Location: Cactus School
(34.5700°N, 118.0931°W)
Time: 09:29:35
(UTC-07:00)

S-56A Canister/Altair - Pass Details

Date: 15 April 2024
Orbit: 638 x 2488 km, 38.9° (Epoch: 29 May)

Event Time Altitude Azimuth Distance (km) Brightness Sun altitude
Rises 03:14:46 0° 282° (WNW) 5,575 - -34.1°
Reaches altitude 10° 03:19:33 10° 268° (W) 4,812 - -33.4°
Maximum altitude 03:28:37 21° 227° (SW) 4,251 - -32.1°
Drops below altitude 10° 03:38:17 10° 186° (S) 5,118 - -30.6°
Exits shadow 03:42:52 - 174° (S) 5,864 11.7 -29.8°
Sets 03:43:45 0° 172° (S) 6,021 11.8 -29.7°
